Regional Weather Roundup
Issued by NWS Sterling, VA

Home | Current Version | Previous Version | Graphics & Text | Print | Product List | Glossary On
Versions: 1 2 3 4 5 6 7 8 9 10 11 12 13 14 15 16 17 18 19 20 21 22 23 24 25 26 27 28
000
ASUS41 KLWX 240110
RWRLWX

REGIONAL WEATHER ROUNDUP
NATIONAL WEATHER SERVICE BALTIMORE MD/WASHINGTON DC
900 PM EDT WED APR 23 2014

Note: "FAIR" indicates few or no clouds below 12,000 feet
with no significant weather and/or obstructions to visibility.
 TC=TEMPERATURE CELSIUS

 * =Non NWS site. Station does not report precipitation (e.g. rain,
    snow, etc.), thunder, or fog.

DCZ001-MDZ009-015-VAZ040>042-051-053>054-240200-
WASHINGTON METRO

CITY           SKY/WX    TMP DP  RH WIND       PRES   REMARKS
WASHINGTON NAT PTCLDY    54  32  43 NW14G23   29.94R
DULLES         PTCLDY    51  31  46 NW20G29   29.94R
ANDREWS AFB    CLEAR     52  32  46 NW23G30   29.92R
FT BELVOIR     CLEAR     53  32  45 NW9       29.95R
QUANTICO       CLEAR     54  31  41 NW15G21   29.95R
COLLEGE PARK*  CLEAR     52  34  50 N10G17    29.93R
LEESBURG*      CLEAR     50  36  57 N8        29.97R
MANASSAS*      CLEAR     52  34  50 N7        29.96R
GAITHERSBURG*  CLEAR     48  30  49 NW6G18    29.97R

$$

MDZ006>007-011-014-240200-
BALTIMORE METRO

CITY           SKY/WX    TMP DP  RH WIND       PRES   REMARKS
BWI AIRPORT    PTCLDY    50  31  48 NW16G29   29.92R
MD SCIENCE CTR   N/A     52  32  46 MISG      29.92R
ANNAPOLIS      CLEAR     53  35  50 NW15G25   29.91R
FORT MEADE*    CLEAR     50  32  50 NW14G23   29.95R

$$

MDZ012-015-019>023-240200-
MARYLAND EASTERN SHORE

CITY           SKY/WX    TMP DP  RH WIND       PRES   REMARKS
OCEAN CITY     CLEAR     54  36  50 NW12G20   29.83R
SALISBURY      CLEAR     55  36  48 NW13      29.86R
BAY BRIDGE AP* CLEAR     52  34  50 NW25G31   29.90R
CAMBRIDGE*     PTCLDY    55  34  44 NW10G25   29.88R
EASTON*        CLEAR     54  37  54 NW15G26   29.92R

$$

MDZ017>025-240200-
SOUTHERN MARYLAND

CITY           SKY/WX    TMP DP  RH WIND       PRES   REMARKS
PATUXENT RIVER CLEAR     54  32  43 NW21G31   29.89R
ST INIGOES     CLEAR     54  33  45 NW8G17    29.90R
LEONARDTOWN*   CLEAR     52  32  46 NW8       29.93R

$$

MDZ003>005-240200-
NORTH CENTRAL MARYLAND

CITY           SKY/WX    TMP DP  RH WIND       PRES   REMARKS
FREDERICK*     CLEAR     48  34  57 NW14G20   29.99R
HAGERSTOWN APT PTCLDY    46  29  51 CALM      29.97R
WESTMINSTER*   PTCLDY    46  34  61 NW7       29.95R

$$

MDZ501>502-240200-
WESTERN MARYLAND

CITY           SKY/WX    TMP DP  RH WIND       PRES   REMARKS
OAKLAND*       PTCLDY    36  28  75 NW9G16    29.99R WCI  29
CUMBERLAND*    CLEAR     46  30  53 NW8G21    30.06R

$$

VAZ025>031-240200-
SHENANDOAH VALLEY

CITY           SKY/WX    TMP DP  RH WIND       PRES   REMARKS
WINCHESTER*    CLEAR     50  32  50 NW21G26   29.97R
STAUNTON*      CLEAR     48  28  46 NW5       29.99R

$$

WVZ021-048>050-054>055-240200-
EASTERN WEST VIRGINIA PANHANDLE

CITY           SKY/WX    TMP DP  RH WIND       PRES   REMARKS
MARTINSBURG    CLEAR     50  28  42 NW14G28   29.99R
PETERSBURG*    CLEAR     54  35  48 NW9G22    30.02R

$$

VAZ036>039-050-240200-
CENTRAL FOOTHILLS

CITY           SKY/WX    TMP DP  RH WIND       PRES   REMARKS
CHARLOTTESVILL CLEAR     54  28  36 N9        29.96R
CULPEPER*      CLEAR     55  28  35 NW8       29.97R

$$

VAZ055>057-240200-
NORTH AND CENTRAL PIEDMONT

CITY           SKY/WX    TMP DP  RH WIND       PRES   REMARKS
FREDERICKSBRG* CLEAR     56  33  40 N6        29.95R
STAFFORD*      CLEAR     52  35  53 NW6       29.99R

$$

NCZ024-NYZ072-PAZ021-071-VAZ022-071-240200-
OTHER REGIONAL OBSERVATIONS

CITY           SKY/WX    TMP DP  RH WIND       PRES   REMARKS
NEW YORK CITY  CLOUDY    48  29  47 NW12G24   29.81R
PHILADELPHIA   MOCLDY    54  30  40 NW25G31   29.84R
PITTSBURGH     PTCLDY    44  26  49 NW10      30.05R
ROANOKE        CLEAR     56  27  32 N8        29.99R
RICHMOND       CLEAR     59  29  31 N13       29.92R
RALEIGH        PTCLDY    62  29  28 CALM      29.92R

$$

ANZ530>537-240200-
MARINE OBSERVATIONS

STATION/POSITION TIME  TEMP    WIND        PRES
                       AIR SEA DIR/SP/G
                 (UTC) (F)     (DEG/KT/KT) (MB)
THOMAS PT LIGHT  0100   53 53  320/ 20/ 25 1013.2R
BALT KEY BRIDGE  0100   52     300/ 23/ 27 1012.7R
COVE POINT       0100   54     330/ 12/ 19 1011.9R
LEWISETTA        0100   56 58  320/ 13/ 19 1012.4R
SOLOMONS ISLAND  0100      55                N/A
PINEY POINT      0100          340/ 24/ 27   N/A

$$




USA.gov is the U.S. government's official web portal to all federal, state and local government web resources and services.